This demonstration page uses our WeatherBlox Daily Observations layout. Learn more.

Left ArrowRight Arrow

34.02893, -84.19858

Hourly Observations for August 31, 2020

Temp ( °F °C ) Dew Point ( °F °C ) Humidity (%) Winds ( mph kmh ) Pressure ( in mb ) Visibility ( mi km ) Precip ( " mm )
12:53 am 00:53 Clear 72 22.2 72 22.2 100 100 Calm 29.82 1010 8 13 0.00 0.00
1:53 am 01:53 Clear 72 22.2 72 22.2 100 100 Calm 29.83 1010 9 14 0.00 0.00
2:27 am 02:27 Mostly Clear 72 22.2 72 22.2 100 100 Calm 29.85 1011 8 13 0.00 0.00
2:53 am 02:53 Clear 72 22.2 72 22.2 100 100 Calm 29.82 1010 7 11 0.00 0.00
3:07 am 03:07 Partly Cloudy 72 22.2 72 22.2 100 100 Calm 29.85 1011 8 13 0.00 0.00
3:16 am 03:16 Mostly Cloudy 72 22.2 72 22.2 100 100 S 3 6 29.84 1010 8 13 0.00 0.00
3:40 am 03:40 Mostly Cloudy 72 22.2 72 22.2 100 100 Calm 29.84 1010 8 13 0.00 0.00
3:53 am 03:53 Cloudy 72 22.2 72 22.2 100 100 Calm 29.81 1010 9 14 0.00 0.00
4:13 am 04:13 Cloudy 72 22.2 72 22.2 100 100 Calm 29.85 1011 9 14 0.00 0.00
4:53 am 04:53 Cloudy 73 22.8 72 22.2 96 96 SW 5 7 29.82 1010 10 16 0.00 0.00
5:34 am 05:34 Cloudy 72 22.2 72 22.2 100 100 SSW 5 7 29.86 1011 8 13 0.00 0.00
5:45 am 05:45 Cloudy with Mist and Fog 72 22.2 72 22.2 100 100 SSW 5 7 29.87 1011 5 8 0.00 0.00
5:53 am 05:53 Cloudy with Mist and Fog 72 22.2 72 22.2 100 100 SSW 3 6 29.84 1011 3 5 0.00 0.00
6:14 am 06:14 Cloudy with Mist and Fog 73 22.8 73 22.8 100 100 Calm 29.86 1011 3 4 0.00 0.00
6:25 am 06:25 Cloudy with Mist and Fog 72 22.2 72 22.2 100 100 WSW 5 7 29.88 1012 3 5 0.00 0.00
6:34 am 06:34 Cloudy with Mist and Fog 72 22.2 72 22.2 100 100 WSW 3 6 29.88 1012 4 6 0.00 0.00
6:53 am 06:53 Cloudy with Light Rain 73 22.8 72 22.2 96 96 WSW 3 6 29.86 1011 3 5 0.00 0.00
6:59 am 06:59 Cloudy with Mist and Fog 73 22.8 72 22.2 96 96 Calm 29.88 1012 5 8 0.00 0.00
7:53 am 07:53 Cloudy 73 22.8 73 22.8 100 100 WNW 3 6 29.88 1012 10 16 0.01 0.25
8:53 am 08:53 Cloudy 74 23.3 73 22.8 97 97 Calm 29.91 1013 10 16 0.00 0.00
9:31 am 09:31 Cloudy 75 23.9 73 22.8 94 94 WNW 3 6 29.91 1013 10 16 0.00 0.00
9:53 am 09:53 Cloudy 75 23.9 73 22.8 94 94 W 3 6 29.91 1013 10 16 0.00 0.00
10:53 am 10:53 Cloudy 76 24.4 73 22.8 91 91 NW 5 7 29.91 1013 10 16 0.00 0.00
11:53 am 11:53 Cloudy 77 25 73 22.8 88 88 WSW 3 6 29.91 1013 10 16 0.00 0.00
11:57 am 11:57 Cloudy 78 25.6 73 22.8 85 85 W 6 9 29.90 1013 10 16 0.00 0.00
12:07 pm 12:07 Cloudy 78 25.6 73 22.8 85 85 VRB 5 7 29.90 1013 10 16 0.00 0.00
12:38 pm 12:38 Mostly Cloudy 81 27.2 73 22.8 77 77 NNE 5 7 29.90 1012 10 16 0.00 0.00
12:53 pm 12:53 Mostly Cloudy 81 27.2 73 22.8 77 77 VRB 3 6 29.90 1013 10 16 0.00 0.00
1:05 pm 13:05 Mostly Cloudy 81 27.2 73 22.8 77 77 NNW 3 6 29.90 1012 10 16 0.00 0.00
1:16 pm 13:16 Mostly Cloudy 82 27.8 73 22.8 74 74 VRB 3 6 29.90 1012 10 16 0.00 0.00
1:25 pm 13:25 Mostly Cloudy 84 28.9 73 22.8 70 70 W 3 6 29.89 1012 10 16 0.00 0.00
1:38 pm 13:38 Mostly Cloudy 85 29.4 74 23.3 70 70 WNW 5 7 29.88 1012 10 16 0.00 0.00
1:53 pm 13:53 Mostly Cloudy 84 28.9 73 22.8 70 70 Calm 29.88 1012 10 16 0.00 0.00
2:53 pm 14:53 Mostly Cloudy 84 28.9 73 22.8 70 70 VRB 5 7 29.86 1011 10 16 0.00 0.00
3:53 pm 15:53 Mostly Sunny 87 30.6 73 22.8 63 63 Calm 29.83 1010 10 16 0.00 0.00
4:53 pm 16:53 Mostly Cloudy 86 30 72 22.2 63 63 Calm 29.82 1010 10 16 0.00 0.00
5:53 pm 17:53 Partly Cloudy 85 29.4 72 22.2 65 65 SSW 3 6 29.84 1011 10 16 0.00 0.00
6:53 pm 18:53 Mostly Cloudy 85 29.4 74 23.3 70 70 S 7 11 29.87 1012 10 16 0.00 0.00
7:53 pm 19:53 Mostly Cloudy 81 27.2 73 22.8 77 77 W 3 6 29.88 1012 10 16 0.00 0.00
8:53 pm 20:53 Clear 77 25 76 24.4 96 96 Calm 29.90 1013 9 14 0.00 0.00
9:53 pm 21:53 Clear 78 25.6 76 24.4 93 93 Calm 29.91 1013 10 16 0.00 0.00
10:53 pm 22:53 Mostly Clear 78 25.6 75 23.9 90 90 S 3 6 29.91 1013 10 16 0.00 0.00
11:53 pm 23:53 Mostly Cloudy 78 25.6 74 23.3 87 87 SW 6 9 29.91 1013 10 16 0.00 0.00

Powered by AerisWeather